GFSFLT2_700_temp_057.txt.gz
Temp
4 5 5 5 5 4 3 4 4 5 5 4 4 4 3 3 4 3 3 3 3 3 2 3 3 2 3 3 2 2 2 2
3 4 4 4 5 4 2 1 3 3 4 4 3 3 3 3 3 3 3 3 2 2 2 2 2 2 2 2 2 2 1 2
5 4 4 2 3 4 3 -1 2 2 3 2 2 2 3 3 3 3 3 2 2 2 2 2 2 2 2 2 2 2 2 2
4 4 4 4 3 3 2 -0 -0 1 1 2 1 2 2 2 2 2 2 2 2 2 2 2 2 2 1 1 1 1 2 1
4 3 3 3 4 2 1 1 -1 0 0 0 -1 0 2 2 2 2 2 2 2 1 1 1 1 1 1 1 1 1 1 1
3 2 3 3 3 1 1 -2 -3 -1 -2 -1 -1 1 1 1 1 1 1 1 1 1 1 1 1 1 1 1 1 1 1 1
3 3 3 3 2 1 1 -2 -3 -2 -1 -1 0 1 1 1 1 1 1 1 1 1 1 0 0 1 1 1 1 1 1 1
2 2 1 0 0 -0 -0 -1 -1 -2 -1 -0 -0 0 0 1 1 1 1 1 1 0 1 0 0 0 0 1 0 0 -0 -0
1 0 0 -0 -0 -1 -1 -1 -2 -1 -1 -0 -0 0 0 0 1 1 0 0 0 1 1 1 1 1 0 0 -0 -1 -1 -1
-0 -0 -1 -1 -1 -1 -1 -1 -1 -1 0 0 -0 -0 0 0 1 0 0 0 1 1 1 1 1 0 -0 -0 -1 -1 -1 -1
2 1 0 -0 -1 -0 -0 -1 -1 0 1 0 -0 0 1 0 0 0 0 0 1 1 1 1 0 -0 -0 -1 -1 -1 -1 -1
2 2 1 0 0 0 0 0 1 1 1 0 -0 -0 1 0 0 0 0 0 1 1 0 1 0 -0 -1 -1 -1 -1 -1 -1
3 2 2 2 1 2 2 2 2 2 1 1 1 1 1 1 0 0 0 0 0 1 1 1 0 -0 -1 -1 -1 -0 -0 -0
3 3 3 3 2 2 2 2 2 2 1 1 1 1 1 0 0 0 0 0 0 1 1 0 -0 -0 -1 -2 -2 -3 -3 -2
4 3 3 3 3 2 3 2 2 2 2 2 2 0 1 0 0 0 0 0 1 1 0 -0 -1 -1 -1 -2 -3 -3 -3 -4
4 4 4 4 3 2 3 3 3 2 2 2 1 1 0 0 0 0 -0 0 1 0 -0 -1 -1 -2 -1 -2 -3 -3 -3 -3
5 4 4 4 4 4 3 3 3 2 2 2 2 1 1 1 1 0 1 0 -0 -0 -1 -1 -2 -2 -2 -2 -3 -3 -3 -3
5 4 4 4 4 4 3 3 3 2 2 2 2 1 1 1 1 1 1 -0 0 -0 -1 -1 -2 -2 -2 -3 -3 -4 -4 -5
5 5 5 4 4 4 3 3 3 2 1 2 2 1 1 1 1 1 1 -0 -0 -1 -1 -2 -2 -2 -2 -3 -4 -4 -4 -5
5 5 5 4 4 3 2 2 2 2 2 2 2 2 1 1 1 0 1 -0 -0 -1 -1 -2 -2 -2 -2 -3 -3 -4 -5 -5

GFSFLT2_700_temp_060.txt.gz
Temp
5 5 5 5 4 3 3 4 4 4 4 4 4 4 4 4 3 3 3 3 3 3 3 3 3 2 2 2 2 3 3 3
5 4 2 3 2 2 2 3 3 4 4 3 3 3 3 3 3 3 3 3 3 3 3 3 3 2 2 2 2 2 3 3
5 5 6 4 4 1 1 -0 -0 2 2 2 2 2 2 2 3 3 2 3 3 3 3 2 2 2 2 2 2 2 2 2
5 4 4 4 3 3 2 2 1 -0 1 1 1 2 2 2 2 2 2 2 2 2 2 2 2 2 2 1 2 1 2 2
3 4 3 3 3 3 2 1 0 -0 -0 0 1 1 1 1 2 2 2 2 2 2 2 1 2 2 2 1 1 1 2 1
2 4 3 3 2 3 2 1 -1 -1 -1 -1 -1 -1 -1 -0 1 1 1 1 1 1 2 2 1 1 1 1 1 1 1 1
2 2 3 2 3 2 2 0 -2 -3 -3 -1 -2 -0 0 -0 1 1 1 1 1 1 1 1 1 1 0 1 0 0 -0 1
2 2 2 2 2 1 0 -0 -0 -2 -3 -2 -2 -0 -0 0 1 0 1 1 1 1 1 1 1 0 1 0 0 0 0 1
2 2 2 2 1 -1 -1 -1 -1 -3 -2 -2 -2 -1 -0 1 1 1 1 1 1 1 1 1 1 1 0 1 0 -0 0 -0
1 1 1 0 -0 -0 -0 -2 -2 -2 -1 -1 0 0 0 0 1 1 0 0 1 1 1 0 1 1 1 1 0 0 -0 -0
2 1 -0 0 0 0 0 -1 -1 -0 -0 -0 -0 -0 0 1 0 -0 -0 0 1 1 0 0 0 0 1 0 -0 -0 -0 -0
3 2 2 2 0 1 -0 -1 -1 -1 -0 1 1 1 0 -0 0 -0 0 0 0 0 0 0 0 0 0 0 0 -0 -1 -1
3 2 2 2 1 1 1 1 1 1 1 0 1 1 0 -0 -0 0 0 0 0 0 -0 0 -0 -0 0 -1 -1 -1 -0 -0
3 2 2 2 2 1 1 1 1 1 1 2 2 1 1 1 1 0 0 1 0 0 -1 -1 -1 -0 -0 -1 -1 -2 -2 -2
4 4 3 3 3 2 1 1 1 2 2 2 2 2 1 1 1 1 0 0 0 0 -0 -1 -1 -1 -1 -1 -2 -2 -2 -3
5 4 4 4 4 3 2 3 3 3 2 2 2 2 2 1 1 1 0 1 0 0 -0 -1 -1 -1 -1 -1 -1 -2 -3 -3
5 4 5 4 3 4 2 2 3 3 3 2 3 2 1 1 1 1 1 0 0 0 -0 -1 -0 -1 -1 -2 -2 -2 -2 -3
5 5 5 4 4 4 3 2 2 2 3 2 2 1 1 1 1 1 1 1 0 -0 -0 -1 -1 -1 -1 -2 -2 -2 -3 -3
6 5 5 5 4 4 4 3 3 3 2 2 1 2 2 1 1 1 1 0 0 -0 -0 -1 -1 -1 -2 -2 -3 -3 -4 -4
6 6 5 5 4 4 3 3 3 2 1 1 2 2 2 2 2 2 1 1 -0 -0 -1 -1 -1 -1 -2 -2 -3 -3 -4 -4

GFSFLT2_700_temp_063.txt.gz
Temp
4 5 5 6 6 5 5 3 3 4 4 5 5 4 4 4 4 3 3 3 3 3 3 3 3 3 3 3 4 3 3 3
5 4 4 3 0 4 1 3 2 3 4 4 3 3 3 3 3 3 3 3 3 3 3 3 3 3 3 3 3 3 3 3
5 5 4 3 4 2 2 2 2 2 3 2 3 2 3 3 2 2 3 2 3 2 2 3 3 3 2 2 3 2 2 3
6 5 5 3 4 4 3 1 1 1 2 1 2 2 2 2 2 2 2 2 2 2 2 2 2 2 2 2 2 2 2 2
5 5 5 4 3 4 4 4 3 2 0 -0 -1 1 1 1 2 1 2 1 2 2 2 2 1 2 1 2 2 1 1 2
6 4 3 3 3 3 3 2 1 -0 0 1 0 0 0 1 1 2 2 1 1 1 2 1 1 1 1 1 1 1 1 1
2 3 3 3 3 3 2 2 0 -0 1 0 -1 -1 -1 -0 1 2 1 1 1 1 1 2 1 1 1 1 1 1 1 1
2 2 2 3 3 3 2 2 1 -0 -0 -1 -2 -1 -1 1 1 1 1 0 1 1 1 1 1 1 1 0 0 0 1 1
2 2 2 2 2 2 1 1 1 -0 -0 -2 -2 -2 -1 0 1 1 1 0 1 1 1 1 1 0 1 0 -0 -0 0 1
2 2 2 2 2 1 1 0 0 -0 -1 -2 -2 -1 -0 1 0 1 1 1 1 1 1 1 1 1 0 0 -0 0 -0 0
1 1 1 1 2 -1 -1 -0 0 -1 -2 -1 -1 -0 1 1 0 0 1 1 0 0 0 1 1 1 0 1 1 0 0 0
4 0 0 1 1 -0 -0 -0 0 -1 -0 -0 0 0 1 1 0 0 0 1 0 -0 0 0 -0 -0 -0 1 0 0 0 0
4 5 4 3 4 2 2 2 1 1 0 1 1 1 1 1 0 1 0 0 0 -0 0 -0 -1 -1 -1 -1 0 0 0 -0
5 4 4 3 2 2 2 2 2 1 1 1 1 2 2 1 -0 0 1 1 1 1 0 0 -1 -1 -1 -1 -2 -1 -1 -1
5 5 4 3 2 2 1 1 1 1 2 2 2 2 1 1 0 -0 0 0 0 0 0 -0 -0 -1 -1 -1 -1 -1 -2 -2
4 4 4 3 3 3 2 2 2 3 2 2 2 2 2 1 1 1 1 1 1 1 1 0 0 -1 -1 -1 -1 -2 -2 -2
5 5 4 4 4 4 4 3 3 2 2 2 2 2 2 1 1 1 1 1 0 0 0 0 -0 -0 -1 -1 -1 -1 -2 -2
5 5 5 5 4 5 4 4 3 3 3 3 3 2 1 1 1 1 1 1 0 0 0 -0 0 -0 -1 -1 -1 -2 -2 -3
6 5 5 5 4 4 4 4 4 3 3 2 3 3 2 1 1 1 1 1 0 1 0 -0 -1 -1 -1 -1 -2 -2 -2 -3
6 6 5 5 5 5 5 4 3 3 2 2 2 3 2 2 1 1 1 1 1 0 0 -0 -1 -1 -2 -2 -2 -2 -3 -3

GFSFLT2_700_temp_069.txt.gz
Temp
4 4 3 3 3 4 3 3 3 2 4 4 4 4 5 5 5 5 5 5 5 5 5 4 4 4 4 4 3 4 4 4
4 4 4 4 2 3 3 4 2 1 3 3 4 4 4 4 4 4 4 4 5 5 4 3 3 3 3 3 3 3 3 3
4 4 4 4 2 3 2 2 2 2 2 3 3 3 3 3 4 4 4 4 4 4 4 4 3 3 2 3 3 3 3 3
5 4 4 3 3 3 2 2 2 1 2 2 3 3 3 3 3 3 3 3 3 4 4 4 3 3 3 3 2 2 2 3
5 4 4 4 4 4 3 2 2 1 -0 2 2 2 3 2 3 3 3 3 2 3 3 4 3 2 2 2 2 2 2 2
5 4 3 3 3 4 4 1 1 1 1 1 1 2 2 1 2 2 2 2 1 2 2 3 3 2 1 1 2 1 2 1
5 3 2 2 3 4 4 3 2 2 1 -1 -0 1 0 1 2 2 2 1 2 2 2 2 2 1 1 1 1 1 1 1
3 2 2 3 3 3 3 2 2 2 1 1 0 -2 -1 1 1 1 1 1 2 2 1 1 2 1 1 1 1 1 1 1
2 2 2 2 2 2 2 2 1 1 1 0 -1 -1 -1 0 1 1 1 1 2 2 1 1 2 1 1 1 1 1 1 1
2 1 2 2 1 1 2 1 2 1 -0 -1 -2 -2 -2 -0 0 0 1 1 1 1 1 1 1 1 1 1 1 1 1 1
3 2 2 1 1 2 1 1 -0 0 -1 -2 -2 -2 -2 -2 -1 -0 1 1 1 1 0 1 1 1 1 1 1 0 1 1
3 1 1 1 1 1 1 1 -1 -2 -2 -2 -2 -2 -2 -2 -2 0 1 1 1 1 1 1 1 1 1 0 0 1 1 0
2 1 1 1 1 1 1 0 0 -2 -2 -2 -2 -2 -2 -2 -1 0 1 1 1 0 0 1 1 0 0 -0 -0 -0 0 -0
5 4 2 1 1 1 -0 -0 0 -2 -1 -3 -2 -2 -2 -1 -0 0 1 1 1 -0 1 0 -0 -0 -1 -1 -0 -0 -0 -1
5 5 4 3 2 1 -1 -0 -0 -1 -1 -2 -2 -2 -2 -1 -0 1 0 0 1 1 1 -0 0 -0 -0 -0 -1 -0 -1 -1
5 5 4 4 3 3 2 1 -1 -1 -1 -1 -1 -1 -1 -0 0 1 -1 -1 1 0 0 0 -0 -0 -0 -0 -1 -1 -0 -1
5 5 5 4 4 4 3 3 2 1 2 2 1 0 0 1 1 0 -0 0 1 0 0 -0 -0 -0 -0 -1 -1 -0 -1 -0
5 5 5 5 4 4 4 3 3 2 2 2 2 1 1 1 1 1 1 1 1 1 1 0 0 0 -0 -1 -1 0 -0 -1
6 6 5 5 5 5 4 4 3 3 2 2 1 1 1 1 1 1 1 1 1 1 -0 0 1 0 -0 -1 -2 -1 -1 -1
6 6 6 5 5 5 4 4 4 3 3 3 2 2 2 1 0 -0 -0 -0 -0 -0 -0 0 1 0 -1 -1 -1 -1 -1 -1

GFSFLT2_700_temp_072.txt.gz
Temp
6 5 5 4 5 4 3 2 4 3 3 3 4 4 4 4 4 4 5 5 5 5 4 5 5 5 4 4 4 4 4 4
5 5 5 6 4 3 3 3 3 3 3 1 4 4 4 3 3 4 4 5 4 4 4 4 4 4 4 3 3 3 3 3
5 5 5 4 4 4 3 3 3 3 2 2 2 3 3 2 3 4 4 4 4 4 4 3 4 4 3 3 3 2 2 3
5 5 5 4 4 4 3 2 2 3 3 0 1 3 1 3 2 3 3 3 3 3 3 3 2 3 4 3 3 2 2 2
4 4 4 4 4 3 2 2 2 1 1 -1 0 1 2 2 2 2 3 3 3 3 2 3 2 2 2 3 3 2 2 2
4 4 4 4 4 3 2 2 1 0 0 -1 0 1 1 2 2 2 2 2 2 1 1 2 2 2 2 2 2 2 2 2
5 4 4 3 4 4 3 2 1 1 0 -1 1 0 -0 0 1 0 2 1 1 1 1 2 1 1 2 2 2 2 1 2
4 3 3 1 3 3 4 1 1 1 -1 -1 -1 -1 -1 -0 -1 -1 0 1 1 1 2 2 2 2 1 1 2 2 2 1
3 1 1 2 2 3 2 2 1 1 0 -2 -1 -0 -1 -1 -1 -1 -0 1 1 1 1 2 1 1 1 1 1 1 1 1
4 1 1 2 2 2 1 1 1 1 -1 -3 -2 -2 -2 -1 -1 -1 -0 0 0 1 1 1 1 1 1 1 1 1 1 1
2 1 2 1 1 1 1 1 1 1 -0 -1 -1 -2 -1 -2 -2 -2 -2 -0 -0 1 1 1 1 1 1 1 1 1 1 1
3 2 2 1 1 1 0 1 1 0 0 -0 -1 -2 -2 -2 -2 -2 -2 -1 -0 0 1 0 1 0 1 0 0 0 0 0
3 2 2 1 1 1 1 0 0 0 -0 -0 -1 -2 -2 -2 -2 -2 -2 -1 -0 0 1 0 0 -0 -0 -0 -0 -0 -0 -1
4 3 2 1 1 1 1 1 0 0 -1 -2 -2 -2 -2 -2 -2 -2 -2 -1 -0 0 0 -0 -0 -0 -0 -0 -0 -0 -0 -1
5 4 4 2 0 1 1 0 -0 -0 -1 -1 -1 -2 -2 -2 -2 -2 -2 -0 0 0 -0 -0 -1 -0 -0 -0 0 0 -0 -0
5 5 5 5 4 1 -0 -0 -0 -0 -0 -1 -1 -1 -1 -2 -2 -2 -1 0 0 0 -0 -0 -1 0 -0 -0 -1 -1 -1 0
5 5 5 5 5 4 3 1 0 0 -1 -1 -1 -2 -2 -2 -2 -2 -1 -0 -0 0 0 -1 -0 -0 -0 -0 -0 -1 -1 -1
5 5 5 5 5 5 4 4 3 3 2 1 0 -1 -1 -1 -1 -1 -1 -1 -2 -1 -1 -1 -0 -0 -0 -1 -1 -1 -1 -1
5 5 5 5 5 4 4 4 4 3 3 3 3 2 2 1 -0 -1 -1 -1 -0 -1 -2 -2 -1 -1 -0 -0 -0 -0 -1 -1
6 6 5 5 5 4 4 4 4 3 3 2 2 2 2 1 0 -0 -1 -1 -1 -1 -1 -1 -0 -1 -0 -0 -0 -1 -1 -1

GFSFLT2_700_temp_075.txt.gz
Temp
4 4 4 3 4 3 3 3 3 3 2 3 4 5 5 6 5 4 4 4 4 4 4 4 4 5 5 4 4 4 4 4
4 4 4 4 4 4 3 3 3 3 3 3 3 4 4 5 5 4 3 3 3 3 4 4 4 4 4 4 4 4 4 4
4 4 3 3 4 4 4 3 3 2 3 3 3 5 4 4 4 3 3 3 3 3 3 4 4 4 4 4 4 4 4 3
4 4 4 4 4 3 3 3 2 2 3 3 2 4 3 4 4 3 2 2 2 3 3 3 3 3 3 3 3 3 3 3
5 4 4 4 4 4 3 2 2 3 2 3 2 2 1 3 3 3 2 2 2 2 2 2 3 3 2 3 2 3 3 3
4 4 4 4 3 3 3 3 3 3 2 2 -0 1 1 2 2 2 2 2 1 2 1 1 2 2 2 2 2 2 2 3
4 5 4 4 3 2 2 2 3 2 2 1 -0 0 1 1 1 1 1 1 1 2 1 1 1 2 2 2 2 2 2 2
5 5 4 4 3 1 2 1 1 2 1 1 -1 -1 -0 -1 -0 1 1 0 1 1 1 1 2 1 1 1 1 1 1 1
5 4 3 3 1 2 2 1 1 0 0 -0 -2 -2 -1 -1 -1 -1 -0 -0 0 -0 1 1 1 1 1 1 1 1 1 1
5 3 1 2 1 2 2 1 2 -0 -1 -2 -2 -2 -1 -2 -2 -2 -1 -2 -1 -1 1 1 1 1 1 1 1 1 1 1
4 1 1 1 2 2 2 1 1 0 -1 -2 -2 -2 -1 -1 -1 -1 -1 -1 -1 -0 -0 0 1 1 0 0 1 1 1 1
3 1 1 1 1 2 1 1 0 0 -1 -3 -3 -2 -1 -1 -2 -2 -1 -1 -1 -1 -1 -0 0 0 0 0 0 0 -0 -0
3 1 2 1 1 1 1 1 1 -0 -0 -2 -3 -3 -2 -2 -2 -1 -2 -2 -2 -2 -1 -0 -0 -0 -0 -0 -0 -0 -0 -1
3 2 2 2 2 1 1 0 0 -0 -0 -1 -2 -2 -2 -2 -1 -1 -2 -2 -2 -1 -1 -1 -0 -1 -1 -1 -0 -0 -0 -1
4 3 3 3 3 1 1 1 0 0 -0 -0 -1 -1 -2 -1 -2 -2 -2 -1 -2 -2 -1 -1 -1 -1 -1 -1 -0 -0 -0 -1
5 4 3 3 3 1 1 1 1 -0 -0 -0 -0 -1 -1 -1 -2 -1 -1 -2 -2 -2 -1 -1 -1 -1 -1 -1 -0 -0 -0 -0
5 5 5 4 3 2 1 0 0 0 -0 -0 -1 -1 -1 -2 -2 -2 -1 -2 -2 -2 -1 -0 -1 -0 -1 -1 -0 -0 -0 -0
5 5 5 5 5 4 3 1 -0 1 0 -0 -2 -1 -1 -2 -1 -2 -2 -2 -2 -2 -2 -1 -1 -1 -1 -1 -1 -1 -0 -1
6 5 5 5 5 5 4 4 2 1 0 -0 -1 -1 -2 -1 -1 -1 -1 -2 -2 -2 -2 -1 -1 -1 -1 -1 -1 -1 -1 -1
6 6 5 5 5 5 5 5 4 4 3 2 1 1 1 -1 -1 -1 -2 -1 -1 -1 -1 -2 -1 -1 -1 -1 -1 -1 -0 -1